EZY93QT EGKK-LPPR

Flight info

Callsign EZY93QT
Flight time 1h 59m
Altitude 35000
Route IMVUR N63 SAM M195 LORKU DCT POZOF DCT LOTEE DCT ELTEP/N0388F230 T328 ASPOR
Aircraft A320/M-SDE3FGHIRWY/LB1

Departure

Time 2026-05-06 19:24
Airport London Gatwick Airport (EGKK)

Arrival

Time 2026-05-06 21:23
Airport Francisco de Sá Carneiro Airport (LPPR)
Time Latitude Longitude Altitude Speed Heading
2026-05-06 18:39 51.15573 -0.17756 208 ft 0 kts 348°
2026-05-06 19:12 51.15557 -0.17750 215 ft 4 kts 347°
2026-05-06 19:12 51.15534 -0.17742 213 ft 2 kts 347°
2026-05-06 19:13 51.15514 -0.17728 209 ft 4 kts 294°
2026-05-06 19:13 51.15513 -0.17693 210 ft 4 kts 257°
2026-05-06 19:13 51.15519 -0.17651 215 ft 4 kts 257°
2026-05-06 19:13 51.15520 -0.17643 214 ft 0 kts 257°
2026-05-06 19:17 51.15516 -0.17668 214 ft 9 kts 257°
2026-05-06 19:17 51.15501 -0.17781 210 ft 10 kts 257°
2026-05-06 19:17 51.15487 -0.17882 208 ft 9 kts 257°
2026-05-06 19:17 51.15474 -0.17970 214 ft 9 kts 257°
2026-05-06 19:18 51.15457 -0.18087 208 ft 10 kts 257°
2026-05-06 19:18 51.15443 -0.18192 211 ft 9 kts 258°
2026-05-06 19:18 51.15416 -0.18273 210 ft 10 kts 211°
2026-05-06 19:18 51.15328 -0.18256 204 ft 13 kts 167°
2026-05-06 19:19 51.15248 -0.18227 207 ft 11 kts 167°
2026-05-06 19:19 51.15186 -0.18323 212 ft 20 kts 262°
2026-05-06 19:19 51.15151 -0.18576 203 ft 26 kts 257°
2026-05-06 19:19 51.15112 -0.18867 213 ft 27 kts 257°
2026-05-06 19:20 51.15073 -0.19141 205 ft 20 kts 257°
2026-05-06 19:20 51.15004 -0.19264 206 ft 14 kts 182°
2026-05-06 19:20 51.14948 -0.19380 210 ft 20 kts 256°
2026-05-06 19:20 51.14909 -0.19663 211 ft 28 kts 257°
2026-05-06 19:21 51.14866 -0.19974 209 ft 30 kts 257°
2026-05-06 19:21 51.14823 -0.20295 209 ft 29 kts 258°
2026-05-06 19:21 51.14788 -0.20550 207 ft 22 kts 257°
2026-05-06 19:21 51.14758 -0.20761 203 ft 12 kts 257°
2026-05-06 19:22 51.14740 -0.20891 212 ft 17 kts 257°
2026-05-06 19:22 51.14699 -0.21181 204 ft 30 kts 257°
2026-05-06 19:22 51.14626 -0.21332 205 ft 12 kts 169°
2026-05-06 19:22 51.14603 -0.21323 208 ft 3 kts 167°
2026-05-06 19:23 51.14595 -0.21320 207 ft 0 kts 167°
2026-05-06 19:23 51.14568 -0.21304 206 ft 11 kts 153°
2026-05-06 19:23 51.14520 -0.21204 205 ft 13 kts 100°
2026-05-06 19:24 51.14543 -0.20993 212 ft 31 kts 77°
2026-05-06 19:24 51.14655 -0.20225 216 ft 111 kts 77°
2026-05-06 19:24 51.14865 -0.18681 205 ft 171 kts 77°
2026-05-06 19:24 51.15139 -0.16787 941 ft 173 kts 76°
2026-05-06 19:25 51.15397 -0.14920 1821 ft 172 kts 75°
2026-05-06 19:25 51.15658 -0.13007 2195 ft 189 kts 75°
2026-05-06 19:25 51.15955 -0.10841 2448 ft 211 kts 75°
2026-05-06 19:25 51.16278 -0.08476 2901 ft 224 kts 75°
2026-05-06 19:26 51.16869 -0.06186 3029 ft 223 kts 46°
2026-05-06 19:26 51.18178 -0.05024 3020 ft 217 kts
2026-05-06 19:26 51.19669 -0.05268 3010 ft 218 kts 348°
2026-05-06 19:26 51.21143 -0.05875 3006 ft 220 kts 336°
2026-05-06 19:27 51.22301 -0.07440 3207 ft 225 kts 301°
2026-05-06 19:27 51.22745 -0.09921 3675 ft 249 kts 269°
2026-05-06 19:27 51.22491 -0.12737 4343 ft 261 kts 261°
2026-05-06 19:27 51.22155 -0.15602 5213 ft 264 kts 261°
2026-05-06 19:28 51.21806 -0.18496 6099 ft 267 kts 260°
2026-05-06 19:28 51.21455 -0.21411 6924 ft 269 kts 261°
2026-05-06 19:28 51.21108 -0.24329 7702 ft 273 kts 261°
2026-05-06 19:28 51.20753 -0.27323 8493 ft 277 kts 261°
2026-05-06 19:29 51.20397 -0.30361 9291 ft 281 kts 261°
2026-05-06 19:29 51.20038 -0.33437 10071 ft 284 kts 261°
2026-05-06 19:29 51.19666 -0.36549 10806 ft 287 kts 260°
2026-05-06 19:29 51.19266 -0.39676 11538 ft 290 kts 260°
2026-05-06 19:30 51.18848 -0.42837 12272 ft 292 kts 259°
2026-05-06 19:30 51.18425 -0.46019 13001 ft 295 kts 259°
2026-05-06 19:30 51.17997 -0.49238 13735 ft 298 kts 259°
2026-05-06 19:30 51.17559 -0.52479 14392 ft 301 kts 256°
2026-05-06 19:31 51.16847 -0.55686 14732 ft 317 kts 249°
2026-05-06 19:31 51.15984 -0.58984 14911 ft 335 kts 248°
2026-05-06 19:31 51.14113 -0.65940 15946 ft 346 kts 248°
2026-05-06 19:32 51.13160 -0.69465 16556 ft 348 kts 248°
2026-05-06 19:32 51.12201 -0.73023 17162 ft 351 kts 248°
2026-05-06 19:32 51.11234 -0.76612 17768 ft 354 kts 248°
2026-05-06 19:32 51.10275 -0.80178 18356 ft 357 kts 248°
2026-05-06 19:33 51.09295 -0.83824 18864 ft 360 kts 248°
2026-05-06 19:33 51.08308 -0.87492 19384 ft 362 kts 248°
2026-05-06 19:33 51.07314 -0.91177 19901 ft 364 kts 248°
2026-05-06 19:33 51.06312 -0.94890 20409 ft 366 kts 248°
2026-05-06 19:34 51.05304 -0.98623 20906 ft 369 kts 248°
2026-05-06 19:34 51.04287 -1.02385 21400 ft 371 kts 248°
2026-05-06 19:34 51.03279 -1.06112 21887 ft 374 kts 248°
2026-05-06 19:34 51.02248 -1.09916 22355 ft 376 kts 248°
2026-05-06 19:35 51.01209 -1.13745 22830 ft 379 kts 248°
2026-05-06 19:35 51.00161 -1.17592 23308 ft 381 kts 247°
2026-05-06 19:35 50.99102 -1.21462 23733 ft 383 kts 247°
2026-05-06 19:35 50.98035 -1.25354 24118 ft 385 kts 247°
2026-05-06 19:36 50.96947 -1.29249 24494 ft 388 kts 244°
2026-05-06 19:36 50.95528 -1.32904 24865 ft 391 kts 233°
2026-05-06 19:36 50.93693 -1.36095 25228 ft 395 kts 223°
2026-05-06 19:36 50.91496 -1.38731 25589 ft 398 kts 214°
2026-05-06 19:37 50.89170 -1.41135 25945 ft 400 kts 215°
2026-05-06 19:37 50.86834 -1.43554 26315 ft 402 kts 215°
2026-05-06 19:37 50.84491 -1.45987 26668 ft 404 kts 215°
2026-05-06 19:37 50.82138 -1.48430 27007 ft 406 kts 215°
2026-05-06 19:38 50.79772 -1.50883 27359 ft 408 kts 215°
2026-05-06 19:38 50.77425 -1.53313 27698 ft 410 kts 215°
2026-05-06 19:38 50.75035 -1.55787 28035 ft 412 kts 215°
2026-05-06 19:38 50.72639 -1.58269 28372 ft 413 kts 215°
2026-05-06 19:39 50.70226 -1.60765 28701 ft 415 kts 215°
2026-05-06 19:39 50.67806 -1.63264 29025 ft 417 kts 215°
2026-05-06 19:39 50.65368 -1.65774 29340 ft 419 kts 215°
2026-05-06 19:39 50.62919 -1.68288 29650 ft 421 kts 214°
2026-05-06 19:40 50.60455 -1.70815 29928 ft 424 kts 214°
2026-05-06 19:40 50.57978 -1.73353 30204 ft 426 kts 214°
2026-05-06 19:40 50.55523 -1.75864 30452 ft 428 kts 214°
2026-05-06 19:40 50.53027 -1.78416 30706 ft 429 kts 214°
2026-05-06 19:41 50.50517 -1.80982 30960 ft 431 kts 214°
2026-05-06 19:41 50.48003 -1.83545 31203 ft 432 kts 214°
2026-05-06 19:41 50.45476 -1.86118 31455 ft 433 kts 214°
2026-05-06 19:41 50.42946 -1.88691 31704 ft 434 kts 214°
2026-05-06 19:42 50.40406 -1.91275 31934 ft 436 kts 214°
2026-05-06 19:42 50.37855 -1.93865 32167 ft 437 kts 214°
2026-05-06 19:42 50.35342 -1.96411 32480 ft 436 kts 214°
2026-05-06 19:42 50.32798 -1.98985 32802 ft 435 kts 214°
2026-05-06 19:43 50.30254 -2.01559 33133 ft 434 kts 214°
2026-05-06 19:43 50.27719 -2.04119 33454 ft 433 kts 214°
2026-05-06 19:43 50.25186 -2.06670 33763 ft 433 kts 214°
2026-05-06 19:43 50.22654 -2.09203 34084 ft 432 kts 214°
2026-05-06 19:44 50.20112 -2.11700 34338 ft 432 kts 214°
2026-05-06 19:44 50.17565 -2.14175 34558 ft 432 kts 213°
2026-05-06 19:44 50.15043 -2.16614 34738 ft 433 kts 213°
2026-05-06 19:44 50.12479 -2.19090 34937 ft 434 kts 213°
2026-05-06 19:45 50.07410 -2.23975 35016 ft 421 kts 213°
2026-05-06 19:45 50.02472 -2.28747 35016 ft 416 kts 214°
2026-05-06 19:46 49.97569 -2.33498 35013 ft 415 kts 214°
2026-05-06 19:46 49.92582 -2.38000 35013 ft 417 kts 206°
2026-05-06 19:47 49.87325 -2.41680 35013 ft 417 kts 206°
2026-05-06 19:47 49.82028 -2.45376 35011 ft 417 kts 206°
2026-05-06 19:48 49.76732 -2.49057 35011 ft 417 kts 206°
2026-05-06 19:48 49.71432 -2.52736 35007 ft 417 kts 206°
2026-05-06 19:49 49.66168 -2.56385 34999 ft 418 kts 206°
2026-05-06 19:49 49.60862 -2.60063 34999 ft 418 kts 206°
2026-05-06 19:50 49.55543 -2.63735 35000 ft 419 kts 206°
2026-05-06 19:50 49.50226 -2.67393 35001 ft 419 kts 206°
2026-05-06 19:51 49.44898 -2.71036 34994 ft 419 kts 206°
2026-05-06 19:51 49.39610 -2.74655 35000 ft 419 kts 206°
2026-05-06 19:52 49.34283 -2.78302 35005 ft 419 kts 206°
2026-05-06 19:52 49.28957 -2.81932 35014 ft 419 kts 206°
2026-05-06 19:53 49.23626 -2.85563 35011 ft 419 kts 206°
2026-05-06 19:53 49.18332 -2.89162 35009 ft 419 kts 206°
2026-05-06 19:54 49.13002 -2.92772 35008 ft 419 kts 206°
2026-05-06 19:54 49.07661 -2.96371 35012 ft 419 kts 205°
2026-05-06 19:55 49.02328 -2.99961 35000 ft 419 kts 205°
2026-05-06 19:55 48.96989 -3.03549 35000 ft 419 kts 205°
2026-05-06 19:56 48.91684 -3.07108 34999 ft 420 kts 205°
2026-05-06 19:56 48.86342 -3.10685 34999 ft 419 kts 205°
2026-05-06 19:57 48.81003 -3.14246 35001 ft 419 kts 205°
2026-05-06 19:57 48.75663 -3.17805 34996 ft 419 kts 205°
2026-05-06 19:58 48.70366 -3.21328 34994 ft 419 kts 205°
2026-05-06 19:58 48.65029 -3.24865 35000 ft 419 kts 205°
2026-05-06 19:59 48.59690 -3.28391 34992 ft 418 kts 205°
2026-05-06 19:59 48.54358 -3.31915 34989 ft 418 kts 205°
2026-05-06 20:00 48.49018 -3.35433 34991 ft 419 kts 205°
2026-05-06 20:00 48.43715 -3.38908 34995 ft 419 kts 205°
2026-05-06 20:01 48.38378 -3.42413 34984 ft 419 kts 205°
2026-05-06 20:01 48.33038 -3.45916 34995 ft 418 kts 205°
2026-05-06 20:02 48.27698 -3.49394 34990 ft 418 kts 205°
2026-05-06 20:02 48.22393 -3.52834 34989 ft 418 kts 205°
2026-05-06 20:03 48.17055 -3.56303 34989 ft 418 kts 205°
2026-05-06 20:03 48.11719 -3.59767 34986 ft 418 kts 205°
2026-05-06 20:04 48.06378 -3.63214 34988 ft 418 kts 205°
2026-05-06 20:04 48.01034 -3.66658 34989 ft 418 kts 205°
2026-05-06 20:05 47.95727 -3.70076 34988 ft 418 kts 205°
2026-05-06 20:05 47.90386 -3.73510 34981 ft 418 kts 205°
2026-05-06 20:06 47.85037 -3.76941 34979 ft 418 kts 205°
2026-05-06 20:06 47.79684 -3.80355 34985 ft 418 kts 205°
2026-05-06 20:07 47.74369 -3.83741 34993 ft 418 kts 205°
2026-05-06 20:07 47.69023 -3.87150 34992 ft 418 kts 205°
2026-05-06 20:08 47.63674 -3.90543 34994 ft 418 kts 205°
2026-05-06 20:08 47.58317 -3.93923 34995 ft 418 kts 205°
2026-05-06 20:09 47.52966 -3.97311 34995 ft 418 kts 205°
2026-05-06 20:09 47.47656 -4.00665 34996 ft 418 kts 205°
2026-05-06 20:10 47.42301 -4.04034 34997 ft 418 kts 205°
2026-05-06 20:10 47.36956 -4.07390 34999 ft 417 kts 204°
2026-05-06 20:11 47.31605 -4.10735 35000 ft 418 kts 205°
2026-05-06 20:11 47.26291 -4.14057 35003 ft 417 kts 205°
2026-05-06 20:12 47.20950 -4.17395 35005 ft 417 kts 205°
2026-05-06 20:12 47.15606 -4.20722 35005 ft 417 kts 205°
2026-05-06 20:13 47.10265 -4.24036 35008 ft 417 kts 204°
2026-05-06 20:13 47.04962 -4.27334 35013 ft 416 kts 205°
2026-05-06 20:14 46.99709 -4.30873 35013 ft 415 kts 207°
2026-05-06 20:14 46.94500 -4.34529 35014 ft 415 kts 207°
2026-05-06 20:15 46.89276 -4.38138 35015 ft 415 kts 207°
2026-05-06 20:15 46.84042 -4.41703 35011 ft 415 kts 206°
2026-05-06 20:16 46.78836 -4.45230 35018 ft 415 kts 206°
2026-05-06 20:16 46.73594 -4.48775 35014 ft 415 kts 206°
2026-05-06 20:17 46.68359 -4.52319 35017 ft 415 kts 206°
2026-05-06 20:17 46.63122 -4.55854 35022 ft 415 kts 206°
2026-05-06 20:18 46.57878 -4.59379 35023 ft 415 kts 206°
2026-05-06 20:18 46.52655 -4.62884 35025 ft 415 kts 206°
2026-05-06 20:19 46.47411 -4.66399 35020 ft 415 kts 206°
2026-05-06 20:19 46.42203 -4.69883 35025 ft 415 kts 206°
2026-05-06 20:20 46.36965 -4.73383 35024 ft 415 kts 206°
2026-05-06 20:20 46.31723 -4.76868 35027 ft 415 kts 206°
2026-05-06 20:21 46.26478 -4.80353 35022 ft 415 kts 206°
2026-05-06 20:21 46.21239 -4.83834 35027 ft 415 kts 206°
2026-05-06 20:22 46.16029 -4.87275 35027 ft 414 kts 206°
2026-05-06 20:22 46.10787 -4.90739 35034 ft 414 kts 206°
2026-05-06 20:23 46.05544 -4.94186 35026 ft 414 kts 206°
2026-05-06 20:23 46.00304 -4.97632 35028 ft 414 kts 206°
2026-05-06 20:24 45.95104 -5.01065 35026 ft 414 kts 206°
2026-05-06 20:24 45.89863 -5.04502 35032 ft 414 kts 206°
2026-05-06 20:25 45.84615 -5.07917 35029 ft 414 kts 206°
2026-05-06 20:25 45.79372 -5.11334 35031 ft 414 kts 206°
2026-05-06 20:26 45.74136 -5.14752 35036 ft 413 kts 206°
2026-05-06 20:26 45.68939 -5.18129 35037 ft 413 kts 206°
2026-05-06 20:27 45.63702 -5.21517 35031 ft 413 kts 206°
2026-05-06 20:27 45.58474 -5.24899 35032 ft 412 kts 206°
2026-05-06 20:28 45.53249 -5.28282 35030 ft 412 kts 206°
2026-05-06 20:28 45.48052 -5.31624 35035 ft 412 kts 205°
2026-05-06 20:29 45.42823 -5.34974 35033 ft 412 kts 205°
2026-05-06 20:29 45.37598 -5.38326 35033 ft 412 kts 205°
2026-05-06 20:30 45.29760 -5.43346 35038 ft 412 kts 205°
2026-05-06 20:31 45.24569 -5.46661 35023 ft 412 kts 205°
2026-05-06 20:31 45.19346 -5.49987 35027 ft 412 kts 205°
2026-05-06 20:32 45.14115 -5.53307 35028 ft 412 kts 205°
2026-05-06 20:32 45.08889 -5.56625 35031 ft 412 kts 205°
2026-05-06 20:33 45.03693 -5.59919 35028 ft 412 kts 205°
2026-05-06 20:33 44.98468 -5.63219 35030 ft 411 kts 205°
2026-05-06 20:34 44.93242 -5.66513 35029 ft 411 kts 205°
2026-05-06 20:34 44.88022 -5.69803 35029 ft 411 kts 205°
2026-05-06 20:35 44.82800 -5.73081 35023 ft 411 kts 205°
2026-05-06 20:35 44.77616 -5.76337 35027 ft 411 kts 205°
2026-05-06 20:36 44.72400 -5.79612 35026 ft 410 kts 205°
2026-05-06 20:36 44.67182 -5.82868 35023 ft 410 kts 206°
2026-05-06 20:37 44.62394 -5.87143 35020 ft 408 kts 216°
2026-05-06 20:37 44.57797 -5.91717 35019 ft 408 kts 216°
2026-05-06 20:38 44.53155 -5.96308 35017 ft 408 kts 216°
2026-05-06 20:38 44.48501 -6.00901 35018 ft 408 kts 216°
2026-05-06 20:39 44.43882 -6.05452 35013 ft 408 kts 216°
2026-05-06 20:39 44.39258 -6.10005 35019 ft 408 kts 216°
2026-05-06 20:40 44.34593 -6.14582 35020 ft 408 kts 216°
2026-05-06 20:40 44.29965 -6.19111 35020 ft 408 kts 216°
2026-05-06 20:41 44.25315 -6.23664 35018 ft 408 kts 216°
2026-05-06 20:41 44.20699 -6.28186 35013 ft 407 kts 216°
2026-05-06 20:42 44.16057 -6.32714 35013 ft 407 kts 216°
2026-05-06 20:42 44.11416 -6.37223 35011 ft 407 kts 216°
2026-05-06 20:43 44.06777 -6.41721 35013 ft 407 kts 216°
2026-05-06 20:43 44.02167 -6.46177 35006 ft 406 kts 216°
2026-05-06 20:44 43.97530 -6.50663 35014 ft 406 kts 215°
2026-05-06 20:44 43.92898 -6.55140 35011 ft 406 kts 215°
2026-05-06 20:45 43.88266 -6.59606 35008 ft 406 kts 215°
2026-05-06 20:45 43.83627 -6.64060 35000 ft 406 kts 215°
2026-05-06 20:46 43.79022 -6.68474 35000 ft 405 kts 215°
2026-05-06 20:46 43.74383 -6.72915 35000 ft 405 kts 215°
2026-05-06 20:47 43.69746 -6.77351 35004 ft 405 kts 215°
2026-05-06 20:47 43.65109 -6.81780 35005 ft 405 kts 215°
2026-05-06 20:48 43.60498 -6.86172 35009 ft 405 kts 215°
2026-05-06 20:48 43.55855 -6.90583 35013 ft 405 kts 215°
2026-05-06 20:49 43.51215 -6.94981 35014 ft 405 kts 215°
2026-05-06 20:49 43.46575 -6.99376 35012 ft 405 kts 215°
2026-05-06 20:50 43.41969 -7.03731 35012 ft 404 kts 215°
2026-05-06 20:50 43.37334 -7.08104 35014 ft 404 kts 215°
2026-05-06 20:51 43.32706 -7.12461 35011 ft 403 kts 215°
2026-05-06 20:51 43.28078 -7.16805 35010 ft 403 kts 215°
2026-05-06 20:52 43.23481 -7.21118 35009 ft 403 kts 215°
2026-05-06 20:52 43.18858 -7.25450 35000 ft 403 kts 214°
2026-05-06 20:53 43.14230 -7.29778 35001 ft 403 kts 214°
2026-05-06 20:53 43.09606 -7.34097 35001 ft 402 kts 214°
2026-05-06 20:54 43.04976 -7.38406 35004 ft 403 kts 214°
2026-05-06 20:54 43.00374 -7.42677 34996 ft 402 kts 214°
2026-05-06 20:55 42.95746 -7.46971 34992 ft 402 kts 214°
2026-05-06 20:55 42.91123 -7.51254 34990 ft 401 kts 214°
2026-05-06 20:56 42.86503 -7.55530 34989 ft 401 kts 214°
2026-05-06 20:56 42.81882 -7.59780 34991 ft 401 kts 214°
2026-05-06 20:57 42.78042 -7.63309 34988 ft 401 kts 214°
2026-05-06 20:57 42.72664 -7.68251 34973 ft 401 kts 214°
2026-05-06 20:58 42.68783 -7.71812 34974 ft 402 kts 214°
2026-05-06 20:58 42.64175 -7.76035 34975 ft 402 kts 214°
2026-05-06 20:59 42.59148 -7.79312 34973 ft 403 kts 196°
2026-05-06 20:59 42.53733 -7.81323 34973 ft 404 kts 197°
2026-05-06 21:00 42.48314 -7.83362 34950 ft 406 kts 197°
2026-05-06 21:00 42.45569 -7.84395 34303 ft 412 kts 196°
2026-05-06 21:00 42.42817 -7.85427 33756 ft 409 kts 196°
2026-05-06 21:00 42.40122 -7.86432 33239 ft 405 kts 196°
2026-05-06 21:01 42.37421 -7.87439 32734 ft 401 kts 196°
2026-05-06 21:01 42.34742 -7.88439 32233 ft 398 kts 196°
2026-05-06 21:01 42.32086 -7.89430 31738 ft 394 kts 196°
2026-05-06 21:01 42.29454 -7.90412 31252 ft 391 kts 195°
2026-05-06 21:02 42.26843 -7.91387 30771 ft 388 kts 195°
2026-05-06 21:02 42.24254 -7.92353 30292 ft 385 kts 195°
2026-05-06 21:02 42.21679 -7.93313 29783 ft 382 kts 195°
2026-05-06 21:02 42.19132 -7.94261 29318 ft 378 kts 195°
2026-05-06 21:03 42.16612 -7.95194 28856 ft 373 kts 195°
2026-05-06 21:03 42.14129 -7.96112 28407 ft 368 kts 195°
2026-05-06 21:03 42.11670 -7.97018 27969 ft 364 kts 195°
2026-05-06 21:03 42.09280 -7.97898 27553 ft 359 kts 195°
2026-05-06 21:04 42.06879 -7.98781 27136 ft 355 kts 195°
2026-05-06 21:04 42.04509 -7.99655 26739 ft 351 kts 195°
2026-05-06 21:04 42.02165 -8.00522 26337 ft 348 kts 195°
2026-05-06 21:04 41.99845 -8.01379 25945 ft 344 kts 195°
2026-05-06 21:05 41.97542 -8.02232 25548 ft 342 kts 195°
2026-05-06 21:05 41.95253 -8.03079 25158 ft 340 kts 195°
2026-05-06 21:05 41.92976 -8.03920 24752 ft 339 kts 195°
2026-05-06 21:05 41.90710 -8.04756 24343 ft 337 kts 195°
2026-05-06 21:06 41.88453 -8.05586 23939 ft 335 kts 195°
2026-05-06 21:06 41.86206 -8.06405 23531 ft 334 kts 195°
2026-05-06 21:06 41.83970 -8.07219 23082 ft 332 kts 195°
2026-05-06 21:06 41.81797 -8.08100 22659 ft 329 kts 201°
2026-05-06 21:07 41.79742 -8.09429 22222 ft 328 kts 209°
2026-05-06 21:07 41.77696 -8.10780 21715 ft 328 kts 203°
2026-05-06 21:07 41.75573 -8.11899 21312 ft 326 kts 200°
2026-05-06 21:07 41.73437 -8.12899 20894 ft 325 kts 199°
2026-05-06 21:08 41.71303 -8.13864 20490 ft 323 kts 199°
2026-05-06 21:08 41.69177 -8.14836 20082 ft 323 kts 199°
2026-05-06 21:08 41.67062 -8.15828 19680 ft 321 kts 200°
2026-05-06 21:08 41.64958 -8.16837 19273 ft 321 kts 200°
2026-05-06 21:09 41.62890 -8.17843 18878 ft 320 kts 200°
2026-05-06 21:09 41.60800 -8.18867 18482 ft 320 kts 200°
2026-05-06 21:09 41.58708 -8.19895 18055 ft 320 kts 200°
2026-05-06 21:09 41.56622 -8.20923 17643 ft 319 kts 200°
2026-05-06 21:10 41.54542 -8.21944 17250 ft 318 kts 200°
2026-05-06 21:10 41.52469 -8.22955 16858 ft 316 kts 200°
2026-05-06 21:10 41.50403 -8.23960 16472 ft 316 kts 200°
2026-05-06 21:10 41.48343 -8.24963 16082 ft 315 kts 200°
2026-05-06 21:11 41.46314 -8.25954 15706 ft 314 kts 200°
2026-05-06 21:11 41.44262 -8.26957 15325 ft 314 kts 200°
2026-05-06 21:11 41.42216 -8.27960 14944 ft 314 kts 200°
2026-05-06 21:11 41.40166 -8.28960 14563 ft 313 kts 200°
2026-05-06 21:12 41.38121 -8.29955 14186 ft 313 kts 200°
2026-05-06 21:12 41.36069 -8.30952 13793 ft 314 kts 200°
2026-05-06 21:12 41.34022 -8.31945 13376 ft 313 kts 200°
2026-05-06 21:12 41.31981 -8.32934 12983 ft 311 kts 200°
2026-05-06 21:13 41.29950 -8.33921 12585 ft 310 kts 200°
2026-05-06 21:13 41.27960 -8.34889 12205 ft 308 kts 200°
2026-05-06 21:13 41.25950 -8.35864 11811 ft 307 kts 200°
2026-05-06 21:13 41.23946 -8.36838 11419 ft 306 kts 199°
2026-05-06 21:14 41.21955 -8.37806 11033 ft 304 kts 199°
2026-05-06 21:14 41.19970 -8.38766 10633 ft 303 kts 199°
2026-05-06 21:14 41.17991 -8.39721 10235 ft 302 kts 199°
2026-05-06 21:14 41.16033 -8.40666 10005 ft 295 kts 199°
2026-05-06 21:15 41.14134 -8.41581 9867 ft 285 kts 199°
2026-05-06 21:15 41.12286 -8.42472 9540 ft 282 kts 199°
2026-05-06 21:15 41.10441 -8.43362 9154 ft 281 kts 199°
2026-05-06 21:15 41.08616 -8.44243 8797 ft 278 kts 199°
2026-05-06 21:16 41.06800 -8.45117 8420 ft 277 kts 199°
2026-05-06 21:16 41.05020 -8.45975 8056 ft 276 kts 199°
2026-05-06 21:16 41.03223 -8.46846 7679 ft 274 kts 201°
2026-05-06 21:16 41.01590 -8.48128 7313 ft 274 kts 219°
2026-05-06 21:17 41.00373 -8.50058 6939 ft 275 kts 239°
2026-05-06 21:17 40.99702 -8.52424 6518 ft 277 kts 257°
2026-05-06 21:17 40.99329 -8.54924 6097 ft 277 kts 257°
2026-05-06 21:17 40.98966 -8.57427 5684 ft 276 kts 261°
2026-05-06 21:18 40.99116 -8.59914 5280 ft 273 kts 293°
2026-05-06 21:18 41.00275 -8.61828 4891 ft 266 kts 328°
2026-05-06 21:18 41.01915 -8.62726 4527 ft 247 kts 347°
2026-05-06 21:18 41.03547 -8.63129 4182 ft 231 kts 352°
2026-05-06 21:19 41.05081 -8.63390 3860 ft 220 kts 353°
2026-05-06 21:19 41.06566 -8.63648 3555 ft 211 kts 352°
2026-05-06 21:19 41.07983 -8.63923 3284 ft 200 kts 351°
2026-05-06 21:19 41.09304 -8.64206 3024 ft 186 kts 351°
2026-05-06 21:20 41.10525 -8.64486 2778 ft 171 kts 351°
2026-05-06 21:20 41.11625 -8.64750 2554 ft 152 kts 351°
2026-05-06 21:20 41.12630 -8.64996 2365 ft 143 kts 351°
2026-05-06 21:20 41.13586 -8.65232 2177 ft 138 kts 350°
2026-05-06 21:21 41.14528 -8.65466 1993 ft 137 kts 350°
2026-05-06 21:21 41.15459 -8.65702 1823 ft 139 kts 349°
2026-05-06 21:21 41.16410 -8.65945 1633 ft 140 kts 349°
2026-05-06 21:21 41.17369 -8.66191 1443 ft 140 kts 349°
2026-05-06 21:22 41.18326 -8.66438 1258 ft 140 kts 348°
2026-05-06 21:22 41.19280 -8.66685 1076 ft 139 kts 348°
2026-05-06 21:22 41.20234 -8.66934 891 ft 140 kts 349°
2026-05-06 21:22 41.21191 -8.67184 698 ft 140 kts 347°
2026-05-06 21:23 41.22151 -8.67434 523 ft 141 kts 349°
2026-05-06 21:23 41.23116 -8.67685 332 ft 141 kts 348°
2026-05-06 21:23 41.23949 -8.67901 252 ft 68 kts 349°
2026-05-06 21:23 41.24239 -8.67978 248 ft 37 kts 348°
2026-05-06 21:24 41.24485 -8.68044 245 ft 35 kts 349°
2026-05-06 21:24 41.24726 -8.68104 238 ft 37 kts 348°
2026-05-06 21:24 41.24992 -8.68173 224 ft 34 kts 350°
2026-05-06 21:24 41.25153 -8.68156 222 ft 12 kts 12°
2026-05-06 21:25 41.25248 -8.68117 218 ft 17 kts 19°
2026-05-06 21:25 41.25289 -8.68072 217 ft 6 kts 70°
2026-05-06 21:25 41.25276 -8.68023 212 ft 6 kts 139°
2026-05-06 21:25 41.25244 -8.68010 213 ft 4 kts 168°
2026-05-06 21:26 41.25225 -8.68004 213 ft 2 kts 168°
2026-05-06 21:26 41.25219 -8.68003 213 ft 3 kts 168°
2026-05-06 21:26 41.25153 -8.67985 220 ft 10 kts 168°
2026-05-06 21:26 41.25104 -8.67972 219 ft 4 kts 168°
2026-05-06 21:27 41.25074 -8.67964 221 ft 14 kts 168°
2026-05-06 21:27 41.24903 -8.67917 228 ft 21 kts 165°
2026-05-06 21:27 41.24823 -8.67869 231 ft 7 kts 152°
2026-05-06 21:27 41.24793 -8.67849 232 ft 3 kts 154°
2026-05-06 21:28 41.24777 -8.67838 233 ft 5 kts 154°
2026-05-06 21:28 41.24719 -8.67816 238 ft 12 kts 166°
2026-05-06 21:28 41.24610 -8.67786 238 ft 20 kts 168°
2026-05-06 21:28 41.24469 -8.67750 243 ft 20 kts 169°
2026-05-06 21:29 41.24338 -8.67718 244 ft 19 kts 167°
2026-05-06 21:29 41.24246 -8.67607 246 ft 17 kts 136°
2026-05-06 21:29 41.24146 -8.67560 249 ft 14 kts 169°
2026-05-06 21:29 41.24064 -8.67538 251 ft 10 kts 168°
2026-05-06 21:30 41.23992 -8.67519 253 ft 12 kts 169°
2026-05-06 21:30 41.23917 -8.67499 256 ft 9 kts 168°
2026-05-06 21:30 41.23854 -8.67483 257 ft 13 kts 169°
2026-05-06 21:30 41.23768 -8.67460 257 ft 7 kts 160°
2026-05-06 21:31 41.23753 -8.67447 258 ft 1 kts 135°
2026-05-06 21:31 41.23755 -8.67429 257 ft 2 kts 71°
2026-05-06 21:31 41.23763 -8.67412 257 ft 2 kts 54°
2026-05-06 21:31 41.23782 -8.67381 257 ft 6 kts 50°
2026-05-06 21:32 41.23801 -8.67353 257 ft 0 kts 47°